Terug naar catalogus

CZ-6A DEB

ActiefPO
NORAD 55535·DEBRIS·🇨🇳 China

Gelanceerd Nov 11, 2022 vanaf Taiyuan Satellite Launch Center

Loading…

Volgende Passages (komende 24 uur)

TLE

VersSource: Space-Track

Epoch: Sep 13, 2026, 03:34 UTC

1 55535U 22151YH  26256.14889274  .00006830  00000-0  97726-3 0  9999
2 55535  98.6279 331.4684 0068282 356.5553   3.5175 14.75370382198158

Volg CZ-6A DEB in realtime met AllMySat

Download on the App Store